sat.trackr.live / text

‹ back to catalog

EUTELSAT KA-SAT 9A

NORAD 37258 · 2010-069A

PAYLOAD ACTIVE UNKNOWN

§ Identity

Operator
Country
EUTE
Launch date
2010-12-26
Launch site
TYMSC
Launch vehicle
Mass (kg)
RCS (m²)
15.85

Purposes: comms

External: N2YO · Heavens-Above · Gunter

§ Orbital elements

Epoch: 2026-09-19T17:00:51.070752Z

Period
1,436.10 min
Inclination
0.0741°
Eccentricity
0.0005303
Mean motion
1.00271358 rev/d
Perigee alt
35,764.4 km
Apogee alt
35,809.1 km
Semi-major
42,164.9 km
B*
0.0000e+0
RAAN
353.8970°
Arg perigee
170.8050°
Mean anomaly
98.1357°
Rev number
4,495

§ Raw data

EUTELSAT KA-SAT 9A1 37258U 10069A   26262.70892443  .00000057  00000+0  00000+0 0  99962 37258   0.0741 353.8970 0005303 170.8050  98.1357  1.00271358 44958

JSON: /api/v1/satellites/37258 · /tle

For live sub-satellite position, see the globe view (requires WebGL).

§ Visibility from observer

Set your observer location to see the next 7 days of passes ≥ 10°. The values pass through the URL so the page stays shareable.

No JS? Fill the form by hand. The geolocation button needs JavaScript.